カタログに戻る

STARLINK-30578

運用中通信VLEO
NORAD 58093·PAYLOAD·🇺🇸 United States

打ち上げ Oct 18, 2023 から Cape Canaveral Space Force Station

Loading…

次のパス (今後24時間)

TLE

最新Source: CelesTrak SupGP

元期: Sep 15, 2026, 02:29 UTC

1 58093C 23160U   26258.10395833  .00014702  00000+0  53236-3 0  2585
2 58093  42.9994  88.0339 0001566 273.9890 164.3812 15.27579495    11

AllMySatでSTARLINK-30578をリアルタイム追跡

Download on the App Store